Showing default

RADIATION SAT (5E 1), 671

Orbit data source: Space-Track

RADIATION SAT (5E 1), 671 is a payload satellite owned by USN BuWeps (US) in LEO that was launched on Sat, 28 Sep 1963 UTC via a THOR ABLESTAR launch vehicle from the Air Force Western Test Range (AFWTR). Payload-class satellites include a variety of spacecraft equipped with specific instruments for various scientific and technological missions. These include communications satellites like Starlink; space stations such as the ISS; scientific satellites like the Hubble; Earth observation satellites from companies like Planet Labs, Umbra, and HawkEye 360; GPS; miniature CubeSats for education and research; and military/defense satellites.

Loading next visibility...
Identifier
671, 1963-038C
Orbit
LEO
Country
Flag of USUS
Related business
Manufacturer
APL
Mission
Spacecraft
Bus & Motor
TRANSIT 5, Unknown motor
Mass
59 kg wet, 59 kg dry
Launch date (UTC)
1963-09-28 (63 years ago)
Launch vehicle
THOR ABLESTAR
Launch site
Air Force Western Test Range (AFWTR)
Object type
Payload
Rocket body
Debris
Shape & HBR
Unknown
Radar Cross Section
Large (>1 m²)

Expand to show TLE details & history
Last TLE update: 16 hours ago

TLE from 16 hours ago
0 RADIATION SAT (5E 1)
1 00671U 63038C   26140.77051672  .00000052  00000-0  71960-4 0  9996
2 00671  89.9636 333.1241 0042084  70.0916 290.4759 13.45221581 71360
Epoch: 2026-05-20T18:29Z
TLE epoch observation values (Epoch: 2026-05-20T18:29:32.644Z)
Latitude
-0.00003°
Longitude
177.31278°
Altitude
1,081.958 km
Speed
7.316 km/s
True Right ascension
22h 12m 29s
True Declination
0° 00' 00"
Sunlit
Object was in daylight at epoch
Visualization orbit readout
Latitude
Unknown
Longitude
Unknown
Altitude
Unknown
Speed
Unknown
Apparent Right ascension
Unknown
Apparent Declination
Unknown
Sunlit
N/A
Visualization observer readout
Local Sidereal Time
19:54:44
Azimuth
Unknown
Elevation
Unknown
Doppler factor
Unknown
Orbital elements
Apogee altitude
1,118.364 km
Perigee altitude
1,055.532 km
Semi-major axis
7,465.085 km
Eccentricity
0.00421
Inclination
89.9636°
RAAN
333.1241°
Arg. of periapsis
70.0916°
True anomaly
290.02329°
Mean anomaly
290.4759°
Eccentric anomaly
290.24968°
Mean motion
3.36505 °/min
Orbital period
106.98 mins
BSTAR
0.00007196
Loading maneuver chart data...
Computing Atmospheric mass density...

Documentation

Showing up to 5 results
|